User: anonymous
Location: Montr�al
(45.5000°N, 73.5830°W)
Time: 08:30:18
(UTC-04:00)
Language:

Cosmos 2369 - Orbit

View from above orbital plane
View from above orbital plane
View from above satellite
View from above satellite

Ground track
Ground track

The orbit data is extracted from the following two-line orbital elements,

1 26069U 00006A   14106.30639594 -.00000102  00000-0 -29089-4 0  2248
2 26069 070.9980 264.4701 0011803 197.8526 162.2154 14.13232015732536
Epoch (UTC): 16 April 2014 07:21:12
Eccentricity: 0.0011803
inclination: 70.9980°
perigee height: 840 km
apogee height: 857 km
right ascension of ascending node: 264.4701°
argument of perigee: 197.8526°
revolutions per day: 14.13232015
mean anomaly at epoch: 162.2154°
orbit number at epoch: 73253

The dashed part of the orbit path shows where the satellite is in the earth's shadow,  

DLR